Onweer radar Meer informatie blitzortung!


Regen radar Meer informatie rain snow radar


Bezoek onze andere website:

Template documentation
and downloads

And another site



15 daagse weersverwachting Holstebro (DK)

  • Overzicht
  • Per uur
  • 15 dagen
  • Extra
  • Vergelijk
  • Kaarten
  • Dagkaart
  • Meer »
  • Info
  • Statistieken
  • Directe link
    Temp 6h Neerslag Wind  
 07:39     17:41    Daglengte: 10:02 Vandaag
01:00
4.5 mm
8
07:00
 
8
13:00
 
10
19:00
5.3 mm
10
 07:36     17:43    Daglengte: 10:07 Morgen
01:00
13.0 mm
12
warningclass
07:00
12.0 mm
15
warningclass
13:00
14.6 mm
13
warningclass
19:00
 
13
warningclass
 07:34     17:45    Daglengte: 10:11 Zondag 23 Feb
01:00
12.5 mm
12
07:00
19.0 mm
10
13:00
 
9
19:00
 
8
Locatie info
Region: Midtjylland
Latitude: 56.3601°N
Longitude: 8.6161°E
16 masl
Temp/Neerslag /Baro Onweer/Dauwpunt
    Temp Baro 1h Neerslag Dauwpunt Wind UV Bewolking  
 07:39     17:41    Daglengte: 10:02 Vandaag
01:00
Voelt als: -0.5°
1000.7 hPa 4.5 mm
49%
0.5°
8
Windvlaag: 11.7 m/s
15%
02:00
Voelt als: -0.5°
1001.8 hPa
17%
-0.2°
8
Windvlaag: 11.9 m/s
28%
03:00
Voelt als: -0.4°
1002.8 hPa
26%
-0.3°
8
Windvlaag: 12 m/s
28%
04:00
Voelt als: -0.3°
1003.6 hPa
80%
0.2°
8
Windvlaag: 11.7 m/s
36%
05:00
Voelt als: -0.2°
1004.9 hPa
77%
0.8°
8
Windvlaag: 11.8 m/s
52%
06:00
Voelt als: -0.1°
1006.1 hPa
74%
0.5°
8
Windvlaag: 11.6 m/s
23%
07:00
Voelt als: 0.1°
1007.2 hPa
20%
0.6°
8
Windvlaag: 11 m/s
40%
08:00
Voelt als: 0.4°
1008.3 hPa
18%
0.6°
7
Windvlaag: 10.3 m/s
24%
09:00
Voelt als: 1.0°
1009.1 hPa
14%
1.4°
7
Windvlaag: 9.9 m/s
17%
10:00
Voelt als: 1.4°
1010.0 hPa
23%
2.0°
9
Windvlaag: 12.8 m/s
20%
11:00
Voelt als: 2.3°
1010.3 hPa
16%
2.6°
9
Windvlaag: 13.2 m/s
33%
12:00
Voelt als: 2.2°
1010.5 hPa
14%
2.8°
10
Windvlaag: 14.4 m/s
50%
13:00
Voelt als: 2.4°
1010.1 hPa
14%
3.0°
10
Windvlaag: 15.2 m/s
46%
14:00
Voelt als: 2.0°
1009.7 hPa
18%
3.2°
11
Windvlaag: 17.4 m/s
78% warningclass
15:00
Voelt als: 1.6°
1009.3 hPa
57%
2.9°
12
Windvlaag: 18.2 m/s
82% warningclass
16:00
Voelt als: 1.2°
1008.9 hPa
82%
3.2°
12
Windvlaag: 18.2 m/s
89% warningclass
17:00
Voelt als: 1.0°
1008.5 hPa 1.5 mm
82%
3.5°
11
Windvlaag: 16.7 m/s
90%
18:00
Voelt als: 1.1°
1008.4 hPa 1.8 mm
82%
4.1°
11
Windvlaag: 16.7 m/s
91%
19:00
Voelt als: 1.2°
1007.9 hPa 1.9 mm
82%
4.5°
10
Windvlaag: 15.7 m/s
91%
20:00
Voelt als: 1.2°
1007.5 hPa 2.6 mm
73%
4.9°
11
Windvlaag: 15.5 m/s
91%
21:00
Voelt als: 1.5°
1007.3 hPa 2.3 mm
71%
5.2°
11
Windvlaag: 16 m/s
91%
22:00
Voelt als: 1.7°
1006.7 hPa 2.4 mm
82%
5.3°
11
Windvlaag: 16.2 m/s
91%
23:00
Voelt als: 1.9°
1006.0 hPa 2.3 mm
82%
5.3°
11
Windvlaag: 16.9 m/s
91%
 07:36     17:43    Daglengte: 10:07 Morgen
00:00
Voelt als: 1.9°
1004.8 hPa 3.4 mm
82%
5.1°
11
Windvlaag: 17.2 m/s
91% warningclass
01:00
Voelt als: 1.9°
1003.9 hPa
82%
4.9°
12
Windvlaag: 18.5 m/s
91% warningclass
02:00
Voelt als: 1.8°
1002.9 hPa
81%
4.9°
13
Windvlaag: 19.3 m/s
91% warningclass
03:00
Voelt als: 1.9°
1001.7 hPa
82%
5.0°
13
Windvlaag: 19.5 m/s
91% warningclass
04:00
Voelt als: 1.9°
1000.5 hPa 2.3 mm
82%
5.0°
13
Windvlaag: 20 m/s
91% warningclass
05:00
Voelt als: 1.8°
999.5 hPa 2.5 mm
81%
5.1°
13
Windvlaag: 20.7 m/s
91% warningclass
06:00
Voelt als: 2.1°
998.6 hPa 3.3 mm
77%
5.4°
14
Windvlaag: 21.3 m/s
91% warningclass
07:00
Voelt als: 2.2°
998.1 hPa 3.9 mm
82%
5.6°
15
Windvlaag: 22.2 m/s
91% warningclass
08:00
Voelt als: 2.4°
997.7 hPa 3.4 mm
82%
5.8°
15
Windvlaag: 22.5 m/s
90% warningclass
09:00
Voelt als: 2.5°
997.5 hPa 3.0 mm
82%
5.8°
15
Windvlaag: 22.3 m/s
88% warningclass
10:00
Voelt als: 2.8°
997.3 hPa
80%
5.6°
14
Windvlaag: 21.9 m/s
74% warningclass
11:00
Voelt als: 2.6°
997.5 hPa 4.2 mm
82%
4.8°
15
Windvlaag: 20.9 m/s
85% warningclass
12:00
Voelt als: 2.3°
998.1 hPa 4.0 mm
82%
4.6°
13
Windvlaag: 20 m/s
69% warningclass
13:00
Voelt als: 2.3°
998.8 hPa
69%
3.8°
13
Windvlaag: 18.4 m/s
73% warningclass
14:00
Voelt als: 2.0°
999.1 hPa
26%
1.7°
13
Windvlaag: 18.6 m/s
51% warningclass
15:00
Voelt als: 1.9°
999.3 hPa
20%
2.1°
12
Windvlaag: 19 m/s
65% warningclass
16:00
Voelt als: 1.1°
999.4 hPa
75%
2.1°
12
Windvlaag: 18.2 m/s
84% warningclass
17:00
Voelt als: 0.5°
999.8 hPa
78%
1.5°
12
Windvlaag: 17.6 m/s
29% warningclass
18:00
Voelt als: -0.1°
1000.0 hPa
76%
1.2°
12
Windvlaag: 18.2 m/s
30% warningclass
19:00
Voelt als: -0.4°
1000.4 hPa
71%
0.8°
13
Windvlaag: 18.6 m/s
45% warningclass
20:00
Voelt als: -0.7°
1001.0 hPa 4.2 mm
76%
0.4°
13
Windvlaag: 18.4 m/s
71% warningclass
21:00
Voelt als: -0.7°
1001.2 hPa 4.2 mm
79%
0.4°
13
Windvlaag: 18.2 m/s
65% warningclass
22:00
Voelt als: -0.6°
1001.3 hPa
100%
-0.0°
13
Windvlaag: 17.4 m/s
89% warningclass
23:00
Voelt als: -0.5°
1001.8 hPa 4.0 mm
90%
-0.3°
12
Windvlaag: 17.5 m/s
86% warningclass
 07:34     17:45    Daglengte: 10:11 Zondag 23 Feb
00:00
Voelt als: -0.7°
1002.1 hPa
45%
-0.9°
12
Windvlaag: 16.9 m/s
68%
01:00
Voelt als: -0.9°
1002.2 hPa
40%
-0.8°
12
Windvlaag: 16.9 m/s
94%
02:00
Voelt als: -0.8°
1002.3 hPa
38%
-0.8°
12
Windvlaag: 16.7 m/s
80%
03:00
Voelt als: -0.8°
1001.9 hPa
97%
-0.7°
12
Windvlaag: 16.6 m/s
84%
04:00
Voelt als: -0.9°
1001.6 hPa 4.1 mm
97%
-0.7°
12
Windvlaag: 16.7 m/s
84%
05:00
Voelt als: -0.9°
1001.6 hPa 4.1 mm
92%
-0.6°
12
Windvlaag: 16.6 m/s
73%
06:00
Voelt als: -0.9°
1001.6 hPa 4.0 mm
91%
-0.6°
11
Windvlaag: 16.4 m/s
77%
07:00
Voelt als: -0.7°
1001.5 hPa 6.7 mm
40%
-0.4°
10
Windvlaag: 2.9 m/s
44%
08:00
Voelt als: -0.6°
1001.6 hPa
40%
-0.4°
10
Windvlaag: 17.3 m/s
51% warningclass
09:00
Voelt als: -0.1°
1001.6 hPa
37%
-0.2°
9
Windvlaag: 18.5 m/s
55% warningclass
10:00
Voelt als: 0.4°
1001.5 hPa
41%
0.1°
9
Windvlaag: 18.9 m/s
69% warningclass
11:00
Voelt als: 0.6°
1001.4 hPa
100%
0.1°
9
Windvlaag: 17.6 m/s
73% warningclass
12:00
Voelt als: 1.1°
1001.4 hPa
47%
0.4°
9
Windvlaag: 16.2 m/s
46%
13:00
Voelt als: 1.3°
1001.3 hPa
87%
0.4°
9
Windvlaag: 2.2 m/s
46%
14:00
Voelt als: 1.2°
1001.5 hPa
36%
0.7°
10
Windvlaag: 15 m/s
45%
15:00
Voelt als: 1.0°
1001.6 hPa
31%
1.0°
10
Windvlaag: 14.8 m/s
57%
16:00
Voelt als: 0.7°
1001.7 hPa
27%
1.0°
10
Windvlaag: 16.1 m/s
26%
17:00
Voelt als: 0.7°
1002.0 hPa
83%
1.2°
9
Windvlaag: 17.9 m/s
45% warningclass
18:00
Voelt als: 0.3°
1002.8 hPa
87%
1.5°
9
Windvlaag: 18.2 m/s
35% warningclass
19:00
Voelt als: 0.3°
1004.1 hPa
24%
1.5°
8
Windvlaag: 1.8 m/s
30%
20:00
Voelt als: 0.2°
1005.6 hPa
22%
1.5°
8
Windvlaag: 12.2 m/s
19%
21:00
Voelt als: 0.2°
1007.0 hPa
22%
1.5°
8
Windvlaag: 11.2 m/s
31%
22:00
Voelt als: -0.1°
1008.6 hPa
23%
0.8°
8
Windvlaag: 11.6 m/s
28%
23:00
Voelt als: -0.2°
1010.1 hPa
22%
0.7°
8
Windvlaag: 11 m/s
13%
 07:31     17:47    Daglengte: 10:16 Maandag 24 Feb
00:00
Voelt als: -0.3°
1011.5 hPa
21%
0.5°
8
Windvlaag: 10.5 m/s
9%
Temp/Neerslag /Baro Onweer/Dauwpunt
    Temp Baro Neerslag Dauwpunt Wind Bewolking  
 07:39     17:41    Daglengte: 10:02 Vandaag
01:00
Voelt als: -0.5°
1000.7 hPa 4.5 mm 0.5°
8
15%
04:00
Voelt als: -0.3°
1003.6 hPa   0.2°
8
36%
07:00
Voelt als: 0.1°
1007.2 hPa   0.6°
8
40%
10:00
Voelt als: 1.4°
1010.0 hPa   2.0°
9
20%
13:00
Voelt als: 2.4°
1010.1 hPa   3.0°
10
46%
16:00
Voelt als: 1.2°
1008.9 hPa   3.2°
12
89% warningclass
19:00
Voelt als: 1.2°
1007.9 hPa 5.3 mm 4.5°
10
91%
22:00
Voelt als: 1.7°
1006.7 hPa 7.3 mm 5.3°
11
91%
 07:36     17:43    Daglengte: 10:07 Morgen
01:00
Voelt als: 1.9°
1003.9 hPa 5.7 mm 4.9°
12
91% warningclass
04:00
Voelt als: 1.9°
1000.5 hPa 2.3 mm 5.0°
13
91% warningclass
07:00
Voelt als: 2.2°
998.1 hPa 9.7 mm 5.6°
15
91% warningclass
10:00
Voelt als: 2.8°
997.3 hPa 6.4 mm 5.6°
14
74% warningclass
13:00
Voelt als: 2.3°
998.8 hPa 8.2 mm 3.8°
13
73% warningclass
16:00
Voelt als: 1.1°
999.4 hPa   2.1°
12
84% warningclass
19:00
Voelt als: -0.4°
1000.4 hPa   0.8°
13
45% warningclass
22:00
Voelt als: -0.6°
1001.3 hPa 8.4 mm -0.0°
13
89% warningclass
 07:34     17:45    Daglengte: 10:11 Zondag 23 Feb
01:00
Voelt als: -0.9°
1002.2 hPa 4.0 mm -0.8°
12
94%
04:00
Voelt als: -0.9°
1001.6 hPa 4.1 mm -0.7°
12
84%
07:00
Voelt als: -0.7°
1001.5 hPa 14.9 mm -0.4°
10
44%
10:00
Voelt als: 0.4°
1001.5 hPa   0.1°
9
69% warningclass
13:00
Voelt als: 1.3°
1001.3 hPa   0.4°
9
46%
16:00
Voelt als: 0.7°
1001.7 hPa   1.0°
10
26%
19:00
Voelt als: 0.3°
1004.1 hPa   1.5°
8
30%
22:00
Voelt als: -0.1°
1008.6 hPa   0.8°
8
28%
 07:31     17:47    Daglengte: 10:16 Maandag 24 Feb
01:00
Voelt als: -0.4°
1013.0 hPa   0.4°
8
6%
04:00
Voelt als: 0.2°
1014.8 hPa 22.3 mm 0.3°
5
65%
07:00
Voelt als: 0.5°
1015.7 hPa 22.3 mm 0.1°
3
92%
10:00
Voelt als: 0.9°
1013.2 hPa 22.3 mm 0.8°
4
92%
13:00
Voelt als: 1.2°
1010.6 hPa 22.5 mm 1.4°
6
92%
16:00
Voelt als: 0.0°
1004.4 hPa 23.3 mm 2.0°
7
92%
19:00
Voelt als: -1.0°
998.2 hPa 24.3 mm 2.9°
7
92%
22:00
Voelt als: 0.3°
995.1 hPa 33.6 mm 3.3°
8
66%
 07:29     17:49    Daglengte: 10:20 Dinsdag 25 Feb
01:00
Voelt als: 1.3°
992.4 hPa 35.4 mm 3.1°
9
41%
04:00
Voelt als: 0.5°
990.6 hPa 35.6 mm 2.1°
10
45%
07:00
Voelt als: -0.2°
988.8 hPa 35.7 mm 1.3°
10
49%
10:00
Voelt als: 0.5°
989.1 hPa 35.8 mm 1.1°
10
47%
13:00
Voelt als: 1.1°
989.5 hPa 35.9 mm 0.8°
10
45%
16:00
Voelt als: 0.6°
989.0 hPa 36.2 mm 0.8°
9
50%
19:00
Voelt als: -0.0°
988.5 hPa 36.4 mm 0.7°
8
55%
22:00
Voelt als: -0.3°
987.9 hPa 36.5 mm 1.2°
7
68%
 07:26     17:51    Daglengte: 10:25 Woensdag 26 Feb
01:00
Voelt als: -0.6°
987.3 hPa 36.7 mm 1.6°
6
80%
04:00
Voelt als: -1.5°
986.5 hPa 37.6 mm 0.7°
6
82%
07:00
Voelt als: -2.2°
985.7 hPa 38.1 mm -0.5°
5
84%
10:00
Voelt als: -0.9°
986.4 hPa 38.2 mm -0.2°
6
86%
13:00
Voelt als: 0.4°
987.0 hPa 38.6 mm 0.1°
7
87%
16:00
Voelt als: -0.3°
987.5 hPa 39.4 mm -0.1°
6
82%
19:00
Voelt als: -0.9°
987.9 hPa 39.4 mm -0.1°
5
77%
22:00
Voelt als: -0.9°
987.7 hPa 39.5 mm 0.0°
4
66%
 07:24     17:54    Daglengte: 10:30 Donderdag 27 Feb
01:00
Voelt als: -0.9°
987.4 hPa 40.5 mm 0.3°
4
55%
04:00
Voelt als: -1.1°
987.5 hPa 45.2 mm -0.2°
3
60%
07:00
Voelt als: -1.3°
987.9 hPa 45.4 mm -0.7°
3
66%
10:00
Voelt als: -0.4°
989.0 hPa 45.5 mm -0.6°
4
70%
13:00
Voelt als: 0.7°
990.3 hPa 45.9 mm -0.9°
5
73%
16:00
Voelt als: -0.3°
990.3 hPa 45.9 mm -0.5°
4
64%
19:00
Voelt als: -1.3°
990.1 hPa 46.0 mm -0.5°
3
55%
22:00
Voelt als: -1.6°
990.8 hPa   -0.7°
3
60%
 07:21     17:56    Daglengte: 10:35 Vrijdag 28 Feb
01:00
Voelt als: -1.8°
991.5 hPa 97.0 mm -1.2°
3
64%
07:00
Voelt als: -2.5°
989.5 hPa 98.1 mm -1.3°
3
71% warningclass
13:00
Voelt als: 0.6°
990.8 hPa 98.9 mm -0.7°
5
74%
19:00
Voelt als: -1.5°
989.9 hPa 106.4 mm -1.1°
4
76%
 07:19     17:58    Daglengte: 10:39 Zaterdag 29 Feb
01:00
Voelt als: -1.5°
991.1 hPa 130.1 mm -0.3°
4
54%
07:00
Voelt als: -1.7°
988.6 hPa 136.7 mm -1.9°
2
88% warningclass
13:00
Voelt als: 1.4°
990.1 hPa 137.0 mm -1.5°
4
82%
19:00
Voelt als: -1.1°
993.1 hPa 137.7 mm -0.5°
4
78%
 07:16     18:00    Daglengte: 10:44 Zondag 01 Maa
01:00
Voelt als: -1.7°
996.8 hPa 139.1 mm -0.6°
4
72%
07:00
Voelt als: -2.6°
1000.0 hPa 139.2 mm -1.7°
4
62% warningclass
13:00
Voelt als: -3.2°
1004.3 hPa 140.1 mm -4.7°
7
1%
19:00
Voelt als: -1.2°
996.3 hPa 1.5 mm -0.9°
5
61%
 07:14     18:02    Daglengte: 10:48 Maandag 02 Maa
01:00
Voelt als: -0.8°
996.9 hPa 2.0 mm -0.6°
4
60%
07:00
Voelt als: -0.6°
996.7 hPa 1.5 mm 0.2°
5
72%
13:00
Voelt als: 0.9°
997.5 hPa 2.4 mm 1.5°
7
68%
19:00
Voelt als: 0.1°
998.5 hPa 1.1 mm 1.6°
5
65%
 07:11     18:04    Daglengte: 10:53 Dinsdag 03 Maa
01:00
Voelt als: -0.3°
999.1 hPa 1.3 mm 1.1°
6
66%
07:00
Voelt als: -0.1°
999.6 hPa 1.5 mm 1.6°
6
68%
13:00
Voelt als: 1.5°
1000.9 hPa 2.1 mm 1.8°
7
69%
19:00
Voelt als: 0.5°
1001.0 hPa 1.6 mm 2.0°
7
68%
 07:08     18:07    Daglengte: 10:59 Woensdag 04 Maa
01:00
Voelt als: -0.1°
1001.4 hPa 1.0 mm 1.5°
6
65%
07:00
Voelt als: -0.0°
1001.1 hPa 1.0 mm 0.9°
5
64%
13:00
Voelt als: 2.1°
1001.5 hPa 1.7 mm 1.2°
6
73%
19:00
Voelt als: 1.0°
1001.6 hPa 2.0 mm 1.9°
5
67%
 07:06     18:09    Daglengte: 11:03 Donderdag 05 Maa
01:00
Voelt als: -0.1°
1003.6 hPa 1.6 mm 1.1°
6
59%
07:00
Voelt als: -0.7°
1005.9 hPa 0.4 mm 0.4°
5
38%
13:00
Voelt als: 2.1°
1008.1 hPa 0.6 mm 0.6°
6
46%
19:00
Voelt als: 0.7°
1008.0 hPa 0.8 mm 0.4°
4
58%
 07:03     18:11    Daglengte: 11:08 Vrijdag 06 Maa
01:00
Voelt als: 0.6°
1007.0 hPa 0.7 mm 0.8°
3
58%
07:00
Voelt als: 0.6°
1006.0 hPa 1.4 mm 0.6°
3
57%
13:00
Voelt als: 2.9°
1008.0 hPa 0.8 mm 0.7°
4
55%
19:00
Voelt als: 0.3°
1009.5 hPa 1.1 mm -0.1°
4
60%
  CAPE Lifted Index Hail Supercell Tornado SRH 3km CL BTM PRES CL TOP PRES Swiss DWD icon SMHI TS
 07:39     17:41    Daglengte: 10:02 Vandaag
01:00 151 J/kg 4.4 K 0 % 0 % 0 % 0 m²/s² 0 0 7.49 2
02:00 209 J/kg 3.1 K 0 % 0 % 0 % 0 m²/s² 0 0 7.18 2
03:00 158 J/kg 3.1 K 0 % 0 % 0 % 0 m²/s² 0 0 5.59 2
04:00 185 J/kg 3.6 K 0 % 0 % 0 % 0 m²/s² 0 0 6.87 2
05:00 107 J/kg 4.9 K 0 % 0 % 0 % 0 m²/s² 0 0 5.89 2
06:00 51 J/kg 7.5 K 0 % 0 % 0 % 0 m²/s² 0 0 9.21 2
07:00 59 J/kg 9.9 K 0 % 0 % 0 % 0 m²/s² 0 0 14.1 2
08:00 91 J/kg 10.5 K 0 % 0 % 0 % 0 m²/s² 0 0 15 1
09:00 58 J/kg 11.5 K 0 % 0 % 0 % 0 m²/s² 0 0 15.04 1
10:00 65 J/kg 11.6 K 0 % 0 % 0 % 0 m²/s² 0 0 14.06 2
11:00 38 J/kg 12.1 K 0 % 0 % 0 % 0 m²/s² 0 0 13.39 2
12:00 16 J/kg 12.5 K 0 % 0 % 0 % 0 m²/s² 0 0 13.28 2
13:00 10 J/kg 13.1 K 0 % 0 % 0 % 0 m²/s² 0 0 14.03 3
14:00 10 J/kg 13.5 K 0 % 0 % 0 % 0 m²/s² 0 0 14.25 3
15:00 2 J/kg 12.9 K 0 % 0 % 0 % 0 m²/s² 0 0 13.35 3
16:00 3 J/kg 12.0 K 0 % 0 % 0 % 0 m²/s² 0 0 12.45 61
17:00 1 J/kg 10.9 K 0 % 0 % 0 % 0 m²/s² 0 0 11.35 61
18:00 0 J/kg 10.3 K 0 % 0 % 0 % 0 m²/s² 0 0 10.72 61
19:00 1 J/kg 9.3 K 0 % 0 % 0 % 0 m²/s² 0 0 9.72 61
20:00 0 J/kg 8.5 K 0 % 0 % 0 % 0 m²/s² 0 0 8.83 3
21:00 0 J/kg 9.0 K 0 % 0 % 0 % 0 m²/s² 0 0 9.33 61
22:00 0 J/kg 8.9 K 0 % 0 % 0 % 0 m²/s² 0 0 9.44 61
23:00 0 J/kg 8.3 K 0 % 0 % 0 % 0 m²/s² 0 0 8.72 61
 07:36     17:43    Daglengte: 10:07 Morgen
00:00 0 J/kg 8.0 K 0 % 0 % 0 % 0 m²/s² 0 0 8.45 61
01:00 0 J/kg 7.1 K 0 % 0 % 0 % 0 m²/s² 0 0 7.25 3
02:00 0 J/kg 7.0 K 0 % 0 % 0 % 0 m²/s² 0 0 7.33 3
03:00 0 J/kg 6.7 K 0 % 0 % 0 % 0 m²/s² 0 0 7.03 61
04:00 0 J/kg 5.4 K 0 % 0 % 0 % 0 m²/s² 0 0 5.64 80
05:00 0 J/kg 5.6 K 0 % 0 % 0 % 0 m²/s² 0 0 6.83 80
06:00 0 J/kg 5.9 K 0 % 0 % 0 % 0 m²/s² 0 0 7.1 61
07:00 0 J/kg 5.3 K 0 % 0 % 0 % 0 m²/s² 0 0 5.9 61
08:00 16 J/kg 4.8 K 0 % 0 % 0 % 0 m²/s² 0 0 5.16 80
09:00 89 J/kg 5.0 K 0 % 0 % 0 % 0 m²/s² 0 0 5.39 61
10:00 95 J/kg 5.8 K 0 % 0 % 0 % 0 m²/s² 0 0 6.76 3
11:00 84 J/kg 6.2 K 0 % 0 % 0 % 0 m²/s² 0 0 7.4 80
12:00 108 J/kg 4.9 K 0 % 0 % 0 % 0 m²/s² 0 0 6.1 80
13:00 50 J/kg 4.0 K 0 % 0 % 0 % 0 m²/s² 0 0 4.63 3
14:00 120 J/kg 3.3 K 0 % 0 % 0 % 0 m²/s² 0 0 4.8 3
15:00 256 J/kg 1.6 K 0 % 0 % 0 % 0 m²/s² 0 0 3.52 3
16:00 199 J/kg 1.7 K 0 % 0 % 0 % 0 m²/s² 0 0 2.45 3
17:00 224 J/kg 1.6 K 0 % 0 % 0 % 0 m²/s² 0 0 3.34 3
18:00 208 J/kg 2.4 K 0 % 0 % 0 % 0 m²/s² 0 0 4.62 2
19:00 240 J/kg 1.9 K 0 % 0 % 0 % 0 m²/s² 0 0 3.79 3
20:00 241 J/kg 1.7 K 0 % 0 % 0 % 0 m²/s² 0 0 3.11 2
21:00 249 J/kg 1.4 K 0 % 0 % 0 % 0 m²/s² 0 0 2.9 2
22:00 185 J/kg 2.3 K 0 % 0 % 0 % 0 m²/s² 0 0 3.17 3
23:00 143 J/kg 2.2 K 0 % 0 % 0 % 0 m²/s² 0 0 3.67 1
 07:34     17:45    Daglengte: 10:11 Zondag 23 Feb
00:00 82 J/kg 2.2 K 0 % 0 % 0 % 0 m²/s² 0 0 4.3 2
01:00 60 J/kg 2.3 K 0 % 0 % 0 % 0 m²/s² 0 0 4.49 3
02:00 41 J/kg 2.6 K 0 % 0 % 0 % 0 m²/s² 0 0 5.57 3
03:00 40 J/kg 3.1 K 0 % 0 % 0 % 0 m²/s² 0 0 7.33 3
04:00 18 J/kg 3.3 K 0 % 0 % 0 % 0 m²/s² 0 0 4.32 3
05:00 23 J/kg 4.1 K 0 % 0 % 0 % 0 m²/s² 0 0 5.72 2
06:00 16 J/kg 5.2 K 0 % 0 % 0 % 0 m²/s² 0 0 8.11 3
07:00 17 J/kg 5.4 K 0 % 0 % 0 % 0 m²/s² 0 0 8.88 2
08:00 19 J/kg 5.6 K 0 % 0 % 0 % 0 m²/s² 0 0 9.47 2
09:00 25 J/kg 5.7 K 0 % 0 % 0 % 0 m²/s² 0 0 9.39 3
10:00 41 J/kg 5.7 K 0 % 0 % 0 % 0 m²/s² 0 0 9.66 3
11:00 36 J/kg 5.8 K 0 % 0 % 0 % 0 m²/s² 0 0 9.04 3
12:00 41 J/kg 5.8 K 0 % 0 % 0 % 0 m²/s² 0 0 7.87 1
13:00 50 J/kg 5.6 K 0 % 0 % 0 % 0 m²/s² 0 0 7.55 1
14:00 88 J/kg 4.5 K 0 % 0 % 0 % 0 m²/s² 0 0 6.81 1
15:00 88 J/kg 2.9 K 0 % 0 % 0 % 0 m²/s² 0 0 5.81 3
16:00 47 J/kg 2.1 K 0 % 0 % 0 % 0 m²/s² 0 0 4.44 2
17:00 20 J/kg 0.9 K 0 % 0 % 0 % 0 m²/s² 0 0 1.92 3
18:00 1 J/kg 0.9 K 0 % 0 % 0 % 0 m²/s² 0 0 1.8 2
19:00 2 J/kg 1.1 K 0 % 0 % 0 % 0 m²/s² 0 0 2.6 2
20:00 0 J/kg 1.0 K 0 % 0 % 0 % 0 m²/s² 0 0 3.46 2
21:00 66 J/kg 0.5 K 0 % 0 % 0 % 0 m²/s² 0 0 3.17 2
22:00 19 J/kg 2.5 K 0 % 0 % 0 % 0 m²/s² 0 0 7.51 2
23:00 10 J/kg 4.7 K 0 % 0 % 0 % 0 m²/s² 0 0 9.05 2
 07:31     17:47    Daglengte: 10:16 Maandag 24 Feb
00:00 1 J/kg 6.6 K 0 % 0 % 0 % 0 m²/s² 0 0 10.83 2
Temp Baro Wind Neerslag
  EWN Forecast EWN WRFDA DWD ICON FMI HIRLAM MET Norway GFS
 07:39     17:41    Daglengte: 10:02 Vandaag
01:00 4.4° 1000.7 hPa 7.6 m/s 4.5 mm 4.7° 998.2 hPa 9.4 m/s 9.2 mm 4.6° 1000.7 hPa 6.5 m/s 3.2 mm 4.8° 1000.7 hPa 7.7 m/s 0.0 mm 4.2° 1001.2 hPa 7.3 m/s 4.6° 1000.3 hPa 8.4 m/s
04:00 4.6° 1003.6 hPa 8.1 m/s 0.0 mm 4.3° 1000.7 hPa 8.4 m/s 27.8 mm 4.3° 1003.5 hPa 6.5 m/s 0.1 mm 4.7° 1003.9 hPa 7.3 m/s 0.0 mm 5.4° 1004.2 hPa 8.3 m/s 4.3° 1003.2 hPa 8.0 m/s
07:00 4.8° 1007.2 hPa 7.6 m/s 0.0 mm 4.4° 1004.9 hPa 9.1 m/s 28.0 mm 4.4° 1007.0 hPa 6.9 m/s 0.1 mm 5.0° 1007.4 hPa 6.3 m/s 0.0 mm 5.4° 1008.0 hPa 7.5 m/s 4.7° 1006.8 hPa 8.1 m/s
10:00 6.1° 1010.0 hPa 8.7 m/s 0.0 mm 6.0° 1007.3 hPa 9.5 m/s 28.0 mm 6.1° 1009.7 hPa 6.7 m/s 0.0 mm 6.7° 1010.5 hPa 7.7 m/s 0.0 mm 6.2° 1010.7 hPa 8.9 m/s 5.9° 1009.4 hPa 8.2 m/s
13:00 7.2° 1010.1 hPa 10.1 m/s 0.0 mm 6.9° 1007.7 hPa 12.5 m/s 28.1 mm 7.7° 1009.8 hPa 9.7 m/s 0.0 mm 7.2° 1010.7 hPa 9.8 m/s 0.0 mm 7.2° 1010.9 hPa 9.9 m/s 6.9° 1010.4 hPa 11.1 m/s
16:00 6.5° 1008.9 hPa 11.6 m/s 0.0 mm 5.7° 1006.2 hPa 12.4 m/s 28.3 mm 6.5° 1008.4 hPa 8.8 m/s 0.1 mm 7.0° 1009.7 hPa 11.4 m/s 0.0 mm 6.6° 1009.8 hPa 11.8 m/s 6.1° 1008.4 hPa 11.7 m/s
19:00 6.3° 1007.9 hPa 10.4 m/s 5.3 mm 6.1° 1005.6 hPa 11.9 m/s 31.0 mm 6.7° 1007.3 hPa 8.6 m/s 1.5 mm 6.9° 1008.7 hPa 9.7 m/s 0.0 mm 6.1° 1008.7 hPa 10.4 m/s 6.6° 1007.3 hPa 11.6 m/s
22:00 6.7° 1006.7 hPa 10.7 m/s 7.3 mm 6.7° 1003.5 hPa 10.9 m/s 37.2 mm 7.0° 1006.2 hPa 8.1 m/s 1.1 mm 7.5° 1007.9 hPa 10.1 m/s 0.0 mm 6.6° 1007.3 hPa 11.1 m/s 7.1° 1005.3 hPa 11.5 m/s
 07:36     17:43    Daglengte: 10:07 Morgen
01:00 7.1° 1003.9 hPa 12.2 m/s 5.7 mm 7.1° 1000.8 hPa 12.4 m/s 41.1 mm 7.2° 1003.2 hPa 9.1 m/s 2.2 mm 7.9° 1005.0 hPa 11.7 m/s 0.0 mm 7.0° 1004.7 hPa 12.6 m/s 7.3° 1003.1 hPa 12.7 m/s
04:00 7.2° 1000.5 hPa 13.0 m/s 2.3 mm 6.8° 996.4 hPa 14.6 m/s 42.3 mm 7.3° 999.5 hPa 11.0 m/s 0.6 mm 8.0° 1002.2 hPa 12.7 m/s 0.0 mm 7.2° 1002.0 hPa 13.0 m/s 7.5° 998.1 hPa 14.8 m/s
07:00 7.7° 998.1 hPa 14.7 m/s 9.7 mm 7.6° 993.7 hPa 17.0 m/s 45.5 mm 7.7° 995.9 hPa 12.6 m/s 2.6 mm 8.2° 999.6 hPa 14.2 m/s 0.0 mm 7.7° 999.7 hPa 14.8 m/s 8.6° 995.2 hPa 16.5 m/s
10:00 8.1° 997.3 hPa 14.3 m/s 6.4 mm 7.9° 993.4 hPa 15.4 m/s 49.9 mm 7.8° 997.5 hPa 9.7 m/s 2.0 mm 8.8° 997.5 hPa 16.9 m/s 0.0 mm 8.3° 998.6 hPa 14.3 m/s 7.8° 993.9 hPa 14.5 m/s
13:00 7.5° 998.8 hPa 12.7 m/s 8.2 mm 6.7° 994.7 hPa 14.2 m/s 52.4 mm 7.5° 999.0 hPa 12.5 m/s 1.4 mm 7.9° 999.5 hPa 12.6 m/s 0.0 mm 7.5° 999.5 hPa 11.9 m/s 6.9° 997.2 hPa 14.1 m/s
16:00 6.6° 999.4 hPa 12.4 m/s 0.0 mm 5.7° 995.6 hPa 14.2 m/s 52.5 mm 5.9° 1000.3 hPa 10.3 m/s 0.1 mm 6.9° 1000.6 hPa 10.4 m/s 0.0 mm 6.9° 999.7 hPa 12.8 m/s 5.7° 998.5 hPa 13.0 m/s
19:00 5.5° 1000.4 hPa 12.5 m/s 0.0 mm 4.7° 997.3 hPa 14.0 m/s 55.0 mm 5.0° 1001.7 hPa 9.7 m/s 0.1 mm 5.9° 1000.4 hPa 11.3 m/s 0.0 mm 5.5° 1000.8 hPa 13.2 m/s 4.6° 1000.5 hPa 12.0 m/s
22:00 5.4° 1001.3 hPa 12.8 m/s 8.4 mm 4.3° 998.9 hPa 13.3 m/s 56.1 mm 4.5° 1002.6 hPa 9.5 m/s 0.4 mm 5.6° 1001.5 hPa 13.4 m/s 4.3° 1002.2 hPa 10.8 m/s
 07:34     17:45    Daglengte: 10:11 Zondag 23 Feb
01:00 5.0° 1002.2 hPa 12.1 m/s 4.0 mm 4.3° 1000.6 hPa 13.2 m/s 56.9 mm 4.6° 1002.6 hPa 8.8 m/s 0.1 mm 5.1° 1002.5 hPa 12.5 m/s 4.2° 1004.0 hPa 11.4 m/s
04:00 5.0° 1001.6 hPa 11.7 m/s 4.1 mm 4.4° 1000.3 hPa 13.4 m/s 57.0 mm 4.5° 1001.5 hPa 8.5 m/s 0.2 mm 5.1° 1002.3 hPa 11.9 m/s 4.3° 1003.9 hPa 11.1 m/s
07:00 4.8° 1001.5 hPa 9.8 m/s 14.9 mm 4.4° 1000.5 hPa 13.5 m/s 57.1 mm 4.0° 1000.4 hPa 8.0 m/s 0.3 mm 4.9° 1002.6 hPa 9.3 m/s 4.5° 1003.9 hPa 10.5 m/s
10:00 5.5° 1001.5 hPa 9.5 m/s 0.0 mm 5.3° 1001.1 hPa 12.9 m/s 57.3 mm 5.3° 999.4 hPa 8.6 m/s 0.0 mm 5.7° 1002.4 hPa 9.2 m/s 5.1° 1003.0 hPa 10.8 m/s
13:00 6.2° 1001.3 hPa 9.5 m/s 0.0 mm 6.1° 1001.2 hPa 12.3 m/s 57.5 mm 5.8° 998.5 hPa 9.2 m/s 0.1 mm 6.4° 1002.2 hPa 9.1 m/s 5.5° 1003.0 hPa 10.4 m/s
16:00 5.8° 1001.7 hPa 9.6 m/s 0.0 mm 5.5° 1000.1 hPa 11.9 m/s 57.6 mm 5.6° 999.0 hPa 10.1 m/s 0.0 mm 6.0° 1003.7 hPa 8.8 m/s 5.2° 1000.9 hPa 9.8 m/s
19:00 5.2° 1004.1 hPa 8.4 m/s 0.0 mm 3.8° 1003.3 hPa 8.4 m/s 58.7 mm 5.0° 1002.7 hPa 8.3 m/s 0.0 mm 5.6° 1005.1 hPa 8.4 m/s 4.9° 1002.8 hPa 8.6 m/s
22:00 4.8° 1008.6 hPa 8.1 m/s 0.0 mm 3.6° 1007.8 hPa 6.0 m/s 59.2 mm 4.5° 1008.3 hPa 9.6 m/s 0.0 mm 5.2° 1009.0 hPa 8.1 m/s 4.3° 1008.6 hPa 9.7 m/s
 07:31     17:47    Daglengte: 10:16 Maandag 24 Feb
01:00 4.4° 1013.0 hPa 7.5 m/s 0.0 mm 2.9° 1013.0 hPa 5.1 m/s 59.2 mm 4.3° 1013.8 hPa 7.9 m/s 0.0 mm 4.9° 1012.8 hPa 7.8 m/s 3.9° 1014.1 hPa 7.2 m/s
04:00 4.0° 1014.8 hPa 4.8 m/s 22.3 mm 4.0° 1014.6 hPa 4.7 m/s 3.4° 1016.9 hPa 5.1 m/s 22.3 mm
07:00 3.5° 1015.7 hPa 3.3 m/s 22.3 mm 3.6° 1015.5 hPa 3.2 m/s 2.4° 1018.3 hPa 3.8 m/s 22.3 mm
10:00 4.4° 1013.2 hPa 4.4 m/s 22.3 mm 4.5° 1012.9 hPa 4.5 m/s 4.2° 1017.0 hPa 3.6 m/s 22.3 mm
13:00 5.2° 1010.6 hPa 5.8 m/s 22.5 mm 5.3° 1010.2 hPa 5.7 m/s 4.2° 1014.6 hPa 7.0 m/s 22.5 mm
16:00 4.5° 1004.4 hPa 6.6 m/s 23.3 mm 4.5° 1004.1 hPa 6.3 m/s 3.8° 1007.7 hPa 9.0 m/s 23.3 mm
19:00 3.9° 998.2 hPa 7.4 m/s 24.3 mm 3.8° 998.0 hPa 7.0 m/s 5.0° 1000.0 hPa 11.4 m/s 24.3 mm
22:00 5.2° 995.1 hPa 8.4 m/s 33.6 mm 4.9° 995.1 hPa 8.2 m/s 7.4° 994.7 hPa 11.1 m/s 33.6 mm
 07:29     17:49    Daglengte: 10:20 Dinsdag 25 Feb
01:00 6.1° 992.4 hPa 9.3 m/s 35.4 mm 6.1° 992.3 hPa 9.3 m/s 6.5° 993.7 hPa 9.8 m/s 35.4 mm
04:00 5.6° 990.6 hPa 9.6 m/s 35.6 mm 5.6° 990.3 hPa 9.4 m/s 5.8° 993.8 hPa 12.2 m/s 35.6 mm
07:00 5.1° 988.8 hPa 9.8 m/s 35.7 mm 5.1° 988.4 hPa 9.5 m/s 5.7° 992.6 hPa 13.3 m/s 35.7 mm
10:00 5.7° 989.1 hPa 10.1 m/s 35.8 mm 5.7° 988.8 hPa 9.7 m/s 6.1° 993.3 hPa 14.7 m/s 35.8 mm
13:00 6.2° 989.5 hPa 10.2 m/s 35.9 mm 6.2° 989.1 hPa 9.8 m/s 6.2° 994.5 hPa 14.8 m/s 35.9 mm
16:00 5.6° 989.0 hPa 9.2 m/s 36.2 mm 5.6° 988.6 hPa 8.9 m/s 5.8° 993.5 hPa 13.4 m/s 36.2 mm
19:00 4.9° 988.5 hPa 8.2 m/s 36.4 mm 4.9° 988.1 hPa 7.9 m/s 4.8° 993.2 hPa 10.9 m/s 36.4 mm
22:00 4.4° 987.9 hPa 7.3 m/s 36.5 mm 4.4° 987.5 hPa 7.1 m/s 4.8° 993.3 hPa 9.8 m/s 36.5 mm
 07:26     17:51    Daglengte: 10:25 Woensdag 26 Feb
01:00 3.9° 987.3 hPa 6.4 m/s 36.7 mm 3.9° 986.8 hPa 6.2 m/s 4.3° 992.7 hPa 8.0 m/s 36.7 mm
04:00 3.1° 986.5 hPa 5.9 m/s 37.6 mm 3.1° 986.0 hPa 5.8 m/s 3.0° 991.9 hPa 6.0 m/s 37.6 mm
07:00 2.4° 985.7 hPa 5.4 m/s 38.1 mm 2.3° 985.2 hPa 5.5 m/s 3.0° 991.5 hPa 4.3 m/s 38.1 mm
10:00 3.7° 986.4 hPa 6.2 m/s 38.2 mm 3.5° 985.8 hPa 6.1 m/s 5.1° 992.8 hPa 7.7 m/s 38.2 mm
13:00 4.9° 987.0 hPa 6.9 m/s 38.6 mm 4.8° 986.4 hPa 6.7 m/s 5.8° 993.5 hPa 8.9 m/s 38.6 mm
16:00 4.0° 987.5 hPa 6.1 m/s 39.4 mm 4.0° 986.9 hPa 5.8 m/s 4.6° 994.0 hPa 9.8 m/s 39.4 mm
19:00 3.2° 987.9 hPa 4.8 m/s 39.4 mm 3.2° 987.4 hPa 4.8 m/s 2.7° 993.4 hPa 5.3 m/s 39.4 mm
22:00 3.0° 987.7 hPa 4.5 m/s 39.5 mm 3.1° 987.5 hPa 4.5 m/s 2.2° 990.5 hPa 4.4 m/s 39.5 mm
 07:24     17:54    Daglengte: 10:30 Donderdag 27 Feb
01:00 2.9° 987.4 hPa 4.3 m/s 40.5 mm 3.0° 987.5 hPa 4.2 m/s 1.7° 985.7 hPa 5.1 m/s 40.5 mm
04:00 2.1° 987.5 hPa 3.2 m/s 45.2 mm 2.2° 988.0 hPa 3.4 m/s 1.0° 982.3 hPa 2.1 m/s 45.2 mm
07:00 1.5° 987.9 hPa 2.6 m/s 45.4 mm 1.5° 988.4 hPa 2.5 m/s 1.6° 982.0 hPa 3.2 m/s 45.4 mm
10:00 3.0° 989.0 hPa 3.6 m/s 45.5 mm 3.0° 989.4 hPa 3.5 m/s 2.7° 984.6 hPa 5.7 m/s 45.5 mm
13:00 4.4° 990.3 hPa 4.7 m/s 45.9 mm 4.5° 990.4 hPa 4.4 m/s 3.4° 989.5 hPa 8.2 m/s 45.9 mm
16:00 3.3° 990.3 hPa 4.2 m/s 45.9 mm 3.3° 990.0 hPa 3.9 m/s 3.8° 994.2 hPa 7.2 m/s 45.9 mm
19:00 2.1° 990.1 hPa 3.4 m/s 46.0 mm 2.1° 989.5 hPa 3.4 m/s 1.8° 996.5 hPa 3.7 m/s 46.0 mm
22:00 1.8° 990.8 hPa 3.4 m/s 48.3 mm 1.9° 990.2 hPa 3.2 m/s 1.6° 997.9 hPa 4.7 m/s 48.3 mm
 07:21     17:56    Daglengte: 10:35 Vrijdag 28 Feb
01:00 1.7° 991.5 hPa 3.3 m/s 48.7 mm 1.6° 990.9 hPa 3.1 m/s 2.3° 997.9 hPa 5.7 m/s 48.7 mm
07:00 0.8° 989.5 hPa 3.1 m/s 49.2 mm 0.7° 988.7 hPa 2.7 m/s 2.5° 997.7 hPa 7.1 m/s 49.2 mm
13:00 4.4° 990.8 hPa 4.8 m/s 49.6 mm 4.3° 990.3 hPa 4.7 m/s 5.1° 996.9 hPa 6.2 m/s 49.6 mm
19:00 2.0° 989.9 hPa 3.6 m/s 55.0 mm 2.1° 989.9 hPa 3.4 m/s 1.3° 990.2 hPa 6.1 m/s 55.0 mm
 07:19     17:58    Daglengte: 10:39 Zaterdag 29 Feb
01:00 2.1° 991.1 hPa 3.7 m/s 67.7 mm 2.1° 992.0 hPa 3.7 m/s 2.3° 980.9 hPa 3.2 m/s 67.7 mm
07:00 0.9° 988.6 hPa 2.3 m/s 68.4 mm 0.8° 989.6 hPa 2.1 m/s 1.7° 977.9 hPa 4.2 m/s 68.4 mm
13:00 4.8° 990.1 hPa 4.4 m/s 68.6 mm 4.8° 991.1 hPa 4.5 m/s 4.7° 979.3 hPa 3.6 m/s 68.6 mm
19:00 2.3° 993.1 hPa 3.6 m/s 69.1 mm 2.4° 993.9 hPa 3.0 m/s 1.8° 983.9 hPa 10.1 m/s 69.1 mm
 07:16     18:00    Daglengte: 10:44 Zondag 01 Maa
01:00 1.8° 996.8 hPa 3.5 m/s 69.6 mm 1.9° 997.3 hPa 3.0 m/s 0.9° 991.2 hPa 9.1 m/s 69.6 mm
07:00 1.1° 1000.0 hPa 3.5 m/s 69.6 mm 1.2° 1000.2 hPa 3.2 m/s 0.5° 997.5 hPa 7.4 m/s 69.6 mm
13:00 2.0° 1004.3 hPa 6.7 m/s 70.1 mm 2.0° 1004.3 hPa 6.7 m/s 70.1 mm
19:00 3.1° 996.3 hPa 5.3 m/s 1.5 mm
 07:14     18:02    Daglengte: 10:48 Maandag 02 Maa
01:00 3.0° 996.9 hPa 4.4 m/s 2.0 mm
07:00 3.3° 996.7 hPa 4.8 m/s 1.5 mm
13:00 5.3° 997.5 hPa 7.2 m/s 2.4 mm
19:00 4.2° 998.5 hPa 5.4 m/s 1.1 mm
 07:11     18:04    Daglengte: 10:53 Dinsdag 03 Maa
01:00 3.9° 999.1 hPa 5.6 m/s 1.3 mm
07:00 4.0° 999.6 hPa 5.6 m/s 1.5 mm
13:00 5.9° 1000.9 hPa 7.3 m/s 2.1 mm
19:00 4.8° 1001.0 hPa 6.5 m/s 1.6 mm
 07:08     18:07    Daglengte: 10:59 Woensdag 04 Maa
01:00 4.3° 1001.4 hPa 6.3 m/s 1.0 mm
07:00 3.7° 1001.1 hPa 4.5 m/s 1.0 mm
13:00 5.8° 1001.5 hPa 5.8 m/s 1.7 mm
19:00 4.9° 1001.6 hPa 5.5 m/s 2.0 mm
 07:06     18:09    Daglengte: 11:03 Donderdag 05 Maa
01:00 4.3° 1003.6 hPa 6.2 m/s 1.6 mm
07:00 3.5° 1005.9 hPa 5.3 m/s 0.4 mm
13:00 5.8° 1008.1 hPa 5.6 m/s 0.6 mm
19:00 3.9° 1008.0 hPa 3.6 m/s 0.8 mm
 07:03     18:11    Daglengte: 11:08 Vrijdag 06 Maa
01:00 3.5° 1007.0 hPa 3.2 m/s 0.7 mm
07:00 3.4° 1006.0 hPa 2.9 m/s 1.4 mm
13:00 5.7° 1008.0 hPa 3.7 m/s 0.8 mm
19:00 3.7° 1009.5 hPa 3.8 m/s 1.1 mm
FMI Hirlam - 7.5 km EWN WRFDA - 12 km DWD ICON - 7 km GFS - 25 km Basiskaart






























































Updatetijd (Europe/Amsterdam) Resolutie Lengte Stap
FMI Hirlam 18:00, 00:00, 06:00, 12:00 7.5 km 49h 1h
EWN WRFDA 20:30, 02:30, 08:30, 14:30 12 km 73h 1h
DWD ICON 22:45, 04:45, 10:45, 16:45 7 km 75h 1h
GFS 18:30, 00:30, 06:30, 12:30 25 km 237h 3h
30+ mm
25-30 mm
20-25 mm
15-20 mm
10-15 mm
6-10 mm
4-6 mm
2-4 mm
1-2 mm
0.5-1 mm
0.2-0.5 mm
0.1-0.2 mm
30+ mm
25-30 mm
20-25 mm
15-20 mm
10-15 mm
6-10 mm
4-6 mm
2-4 mm
1-2 mm
0.5-1 mm
0.2-0.5 mm
0.1-0.2 mm
Sneeuwval
Natte sneeuw
Hagel
Vorst
30+ mm
25-30 mm
20-25 mm
15-20 mm
10-15 mm
6-10 mm
4-6 mm
2-4 mm
1-2 mm
0.5-1 mm
0.2-0.5 mm
0.1-0.2 mm
Sneeuwval
Natte sneeuw
Hagel
Vorst
Onweer
50 mm
40 mm
30 mm
26 mm
22 mm
18 mm
14 mm
10 mm
9 mm
8 mm
7 mm
6 mm
5 mm
4.5 mm
4 mm
3.5 mm
3 mm
2.5 mm
2 mm
1.5 mm
1 mm
0.8 mm
0.6 mm
0.4 mm
0.2 mm
0.05 mm
35°
30°
25°
20°
15°
10°
-5°
-10°
-15°
-20°
-25°
-30°
-35°
33> m/s
29 m/s
25 m/s
21 m/s
17 m/s
14 m/s
11 m/s
8 m/s
5 m/s
3 m/s
0 m/s
2600 J/kg
2400 J/kg
2200 J/kg
2000 J/kg
1800 J/kg
1600 J/kg
1400 J/kg
1200 J/kg
1000 J/kg
800 J/kg
600 J/kg
400 J/kg
200 J/kg
70 dBZ
65 dBZ
60 dBZ
55 dBZ
50 dBZ
45 dBZ
40 dBZ
35 dBZ
30 dBZ
25 dBZ
20 dBZ
15 dBZ
10 dBZ
5 dBZ
-1 K
-2 K
-3 K
-4 K
-5 K
-6 K
-7 K
-8 K
-9 K
950 m²/s²
900 m²/s²
850 m²/s²
800 m²/s²
750 m²/s²
700 m²/s²
650 m²/s²
600 m²/s²
550 m²/s²
500 m²/s²
450 m²/s²
400 m²/s²
350 m²/s²
300 m²/s²
250 m²/s²
200 m²/s²
150 m²/s²
100 m²/s²
46 m/s
44 m/s
42 m/s
40 m/s
38 m/s
36 m/s
34 m/s
32 m/s
30 m/s
28 m/s
26 m/s
24 m/s
22 m/s
20 m/s
16 m/s
12 m/s
8 m/s
4 m/s
30 m/s
28 m/s
26 m/s
24 m/s
22 m/s
20 m/s
18 m/s
16 m/s
14 m/s
12 m/s
10 m/s
8 m/s
6 m/s
4 m/s
2 m/s
3.0
2.8
2.6
2.4
2.2
2.0
1.8
1.6
1.4
1.2
1.0
0.8
0.6
0.4
0.2
15
14
13
12
11
10
9
8
7
6
5
4
3
2
1
90%
80%
70%
60%
50%
40%
30%
20%
10%
42
40
38
36
34
32
30
28
26
24
22
20
18
16
14
12
90+ cm
80-90 cm
70-80 cm
60-70 cm
50-60 cm
40-50 cm
30-40 cm
20-30 cm
10-20 cm
1-10 cm
Sneeuwval
Natte sneeuw
Regen
>120 mm
115 mm
110 mm
105 mm
100 mm
95 mm
90 mm
85 mm
80 mm
75 mm
70 mm
65 mm
60 mm
55 mm
50 mm
45 mm
45 mm
40 mm
35 mm
30 mm
25 mm
20 mm
15 mm
10 mm
5 mm
0.1 mm
960 hPa
880 hPa
800 hPa
720 hPa
640 hPa
560 hPa
584 gpdm
568 gpdm
552 gpdm
536 gpdm
520 gpdm
504 gpdm
488 gpdm
Extreem zwaar Noodweer Kans op onweer
15% 15% 5% 50% 15%

Dag




Kaart






35°
30°
25°
20°
15°
10°
-5°
-10°
-15°
-20°
-25°
-30°
-35°
33> m/s
29 m/s
25 m/s
21 m/s
17 m/s
14 m/s
11 m/s
8 m/s
5 m/s
3 m/s
0 m/s
Extreem zwaar Noodweer Kans op onweer
15% 15% 5% 50% 15%
>120 mm
115 mm
110 mm
105 mm
100 mm
95 mm
90 mm
85 mm
80 mm
75 mm
70 mm
65 mm
60 mm
55 mm
50 mm
45 mm
45 mm
40 mm
35 mm
30 mm
25 mm
20 mm
15 mm
10 mm
5 mm
0.1 mm
Onweer risico kaarten - De groene en gele kleur geeft de kans op onweer aan binnen 40 km van een punt. Oranje, rood en violet hebben hetzelfde niveau zoals je het ziet op estofex.org waaronder ook de kans op hagel en supercells.

dBZ - dBZ staat voor decibel ten opzichte van Z.

Cape - Convective available potential energy (CAPE), is de totale hoeveelheid energie die een luchtpakketje nodig heeft om zover mogelijk te stijgen in de atmosfeer.

K Index - K-Index wordt berekend door de Vertical Totals (VT) en het verschil tussen de 850 hPa temperatuur en de 700 hPa dauwpuntsdepressie (Tdd 700) bij elkaar op te tellen.

TT Index - Convectie index wordt gebruikt voor het voorspellen van zware buien of onweer.

WRF - The Weather Research and Forecasting (WRF) is een volgende generatie mesoscale numeriek weersvoorspelling systeem ontworpen om zowel de operationele planning als het atmosferisch onderzoek te dienen. WRF is a cooperatie tussen het National Center for Atmospheric Research (NCAR), National Centers for Environmental Prediction (NCEP), Forecast Systems Laboratory (FSL), Air Force Weather Agency (AFWA), Naval Research Laboratory, University of Oklahoma, en de Federal Aviation Administration (FAA). Deze software draait op onze server.

WRFDA - Een meer geavanceerde versie van WRF

Arome - Het 2.5 km Arome model. Verzorgd door het Noors Meteorologisch Instituut.

MET Norway - De proff-default 4km meteorological data is een beste keus selectie van meteorologische modellen gebruikt door met.no die zijn geïnterpoleerd tot een gemeenschappelijke dataset. Verzorgd door het Noorse Meteorologisch Instituut.

SMHI - Het Hirlam model verzorgd door het Zweeds meteorologisch instituut.

FMI - Het Hirlam model verzorgd door het Fins meteorologisch instituut. Dekking alleen Finland.

GFS - Het Global Forecast Systeem (GFS) is een wereldwijd numerieke weersvoorspelling computermodel, gerund door NOAA.

GEM-GDPS - Het GEM-GDPS is a wereldwijd numeriek weersvoorspelling computermodel verzorgd door het Canadees Meteorologisch Centrum.

Credits/Info: Dank aan Stefan Gofferje van sääkeskus.fi voor enkele formules van GrADS. Info: Wikipedia.

Betrouwbaarheid van de verwachting

NB! 2015-03-29: Rebuilding the accuracy-test!

EWNACC
Day 1 Good forecasts

Dag 1 Tmax

Dag 2 Tmax

Geladen verwachtingen TOP 50

Totaal geladen verwachtingen:
Plaats Latitude Longitude Verwachtingen Plaats Latitude Longitude Verwachtingen